267  
ASCA42 TJSJ 231010  
RWRPR  
PUERTO RICO/U.S. VIRGIN ISLANDS HOURLY WEATHER ROUNDUP  
NATIONAL WEATHER SERVICE SAN JUAN PR  
600 AM AST SUN JUL 23 2017  
 
PRZ001>002-007>008-010-231100-  
PUERTO RICO  
 
CITY SKY/WX TMP DP RH WIND PRES REMARKS
 
SAN JUAN LMM PTCLDY 81 79 94 SE3 30.01R  
PONCE PTCLDY 77 73 88 E6 30.02  
CEIBA MOCLDY 79 77 94 CALM 30.04R  

 
 
VIZ001>002-231100-  
U.S. VIRGIN ISLANDS  
 
CITY SKY/WX TMP DP RH WIND PRES REMARKS
 
CHARLOTTE AMA CLEAR 82 79 89 E9 N/A HX 93  
CHRISTIANSTED PTCLDY 81 77 89 NE6 30.02R  

 
 
HOURLY WEATHER ROUNDUP FOR THE NEWS MEDIA  
 
CITY SKY/WX TMP DP RH WIND PRES REMARKS
 
NEW YORK CLOUDY 72 71 97 CALM 29.76R  
NEWARK CLOUDY 71 70 96 CALM 29.75S  
CHICAGO PTCLDY 71 68 90 CALM 29.78S  
HARTFORD CLOUDY 70 66 87 CALM 29.73R  
BOSTON MOCLDY 68 56 65 NE17 29.79R  
DALLAS PTCLDY 82 72 71 S9 29.86S  
PHILADELPHIA CLOUDY 78 70 76 W10 29.75S  
LOS ANGELES PTCLDY 68 64 87 W5 29.87F  
WASHINGTON DC CLOUDY 72 71 97 CALM 29.78S FOG  
 
CLICK HERE TO GO TO PREVIOUS BULLETINS.

The Nexlab PR Page Main Text Page